Weather History for KMSN - November, 2012

Change the Weather History Date:

Monday, November 12, 2012

  Actual Average Record
Temperature  
Mean Temperature 29 °F 38 °F  
Max Temperature 33 °F 46 °F 64 °F (1964)
Min Temperature 25 °F 30 °F 7 °F (1986)
Degree Days  
Heating Degree Days 36 27  
Month to date heating degree days 306 293  
Since 1 July heating degree days 1021 1006  
Cooling Degree Days 0 0  
Month to date cooling degree days 0 0  
Year to date cooling degree days 1068 568  
Moisture  
Dew Point 17 °F    
Average Humidity 70    
Maximum Humidity 82    
Minimum Humidity 57    
Precipitation  
Precipitation T in 0.08 in 1.21 in (1879)
Month to date precipitation 0.87 0.96  
Year to date precipitation 23.73 31.31  
Snow  
Snow T in 0.00 in 2.00 in (1916)
Month to date snowfall 0.1 0.6  
Since 1 July snowfall 0.1 1.1  
Since 1 September snowfall 0.1 1.1  
Snow Depth 0.00 in    
Sea Level Pressure  
Sea Level Pressure 30.11 in    
Wind  
Wind Speed 9 mph (West)    
Max Wind Speed 16 mph    
Max Gust Speed 28 mph    
Visibility 10 miles    
Events Snow    
T = Trace of Precipitation, MM = Missing Value Source: NWS Daily Summary

Daily Weather History Graph

Daily Weather History Graph

Search for Another Location

Airport or City:

Trip Planner

Search our weather history database for the weather conditions in past years. The results will help you decide how hot, cold, wet, or windy it might be!

Date:

Astronomy

Nov. 12, 2012 Rise Set
Actual Time 6:46 AM CST 4:35 PM CST
Civil Twilight 6:16 AM CST 5:06 PM CST
Nautical Twilight 5:42 AM CST 5:40 PM CST
Astronomical Twilight 5:08 AM CST 6:13 PM CST
Moon 5:10 AM CST (11/12) 3:41 PM CST (11/12)
Length of Visible Light 10h 49m
Length of Day
9h 48m
Waning Crescent, 2% of the Moon is Illuminated
Nov 12
Waning Crescent
Nov 13
New
Nov 20
First Quarter
Nov 28
Full
Dec 6
Last Quarter

Hourly Weather History & Observations

Time (CST) Temp. Windchill Dew Point Humidity Pressure Visibility Wind Dir Wind Speed Gust Speed Precip Events Conditions
12:53 AM 30.9 °F 23.5 °F 25.0 °F 79% 29.95 in 10.0 mi West 8.1 mph 21.9 mph N/A   Overcast
1:53 AM 30.0 °F 20.0 °F 21.9 °F 72% 29.95 in 10.0 mi West 12.7 mph 20.7 mph N/A   Overcast
2:53 AM 28.9 °F 20.4 °F 21.0 °F 72% 29.99 in 10.0 mi WNW 9.2 mph 16.1 mph N/A   Overcast
3:53 AM 28.9 °F 20.4 °F 21.0 °F 72% 30.00 in 10.0 mi West 9.2 mph - N/A   Overcast
4:53 AM 27.0 °F 17.3 °F 18.0 °F 69% 30.00 in 10.0 mi West 10.4 mph 18.4 mph N/A   Mostly Cloudy
5:11 AM 26.6 °F 19.1 °F 17.6 °F 69% 29.99 in 10.0 mi WNW 6.9 mph - N/A   Scattered Clouds
5:53 AM 26.1 °F 19.4 °F 18.0 °F 71% 30.01 in 10.0 mi West 5.8 mph - N/A   Clear
6:17 AM 26.6 °F 17.5 °F 17.6 °F 69% 30.00 in 10.0 mi West 9.2 mph - N/A   Mostly Cloudy
6:44 AM 26.6 °F 16.2 °F 15.8 °F 64% 30.01 in 10.0 mi West 11.5 mph 18.4 mph N/A   Scattered Clouds
6:53 AM 26.1 °F 16.8 °F 17.1 °F 69% 30.04 in 10.0 mi WNW 9.2 mph 17.3 mph N/A   Mostly Cloudy
7:53 AM 26.1 °F 16.2 °F 17.1 °F 69% 30.06 in 10.0 mi West 10.4 mph 16.1 mph N/A   Overcast
8:53 AM 25.0 °F 14.2 °F 15.1 °F 66% 30.08 in 10.0 mi West 11.5 mph 18.4 mph 0.00 in   Overcast
9:53 AM 26.1 °F 16.8 °F 16.0 °F 66% 30.09 in 9.0 mi West 9.2 mph - 0.00 in Snow Light Snow
10:53 AM 27.0 °F 20.5 °F 16.0 °F 63% 30.10 in 10.0 mi Variable 5.8 mph 19.6 mph 0.00 in   Mostly Cloudy
11:53 AM 28.9 °F 19.2 °F 17.1 °F 61% 30.08 in 10.0 mi WSW 11.5 mph 24.2 mph N/A   Mostly Cloudy
12:01 PM 28.4 °F 19.1 °F 17.6 °F 64% 30.04 in 10.0 mi WSW 10.4 mph 21.9 mph N/A   Mostly Cloudy
12:29 PM 28.4 °F 21.2 °F 17.6 °F 64% 30.04 in 10.0 mi Variable 6.9 mph 19.6 mph N/A   Mostly Cloudy
12:53 PM 28.9 °F 19.8 °F 17.1 °F 61% 30.08 in 10.0 mi West 10.4 mph 23.0 mph N/A   Overcast
1:53 PM 28.0 °F 19.3 °F 17.1 °F 63% 30.10 in 9.0 mi West 9.2 mph 20.7 mph 0.00 in Snow Light Snow
2:22 PM 28.4 °F 18.5 °F 17.6 °F 64% 30.08 in 9.0 mi West 11.5 mph 21.9 mph 0.00 in Snow Light Snow
2:53 PM 28.0 °F 17.0 °F 17.1 °F 63% 30.13 in 9.0 mi West 13.8 mph 20.7 mph 0.00 in Snow Light Snow
3:06 PM 28.4 °F 20.4 °F 17.6 °F 64% 30.10 in 9.0 mi West 8.1 mph 21.9 mph 0.00 in Snow Light Snow
3:53 PM 28.0 °F 19.3 °F 18.0 °F 66% 30.16 in 9.0 mi West 9.2 mph 18.4 mph 0.00 in Snow Light Snow
4:53 PM 28.0 °F 19.3 °F 18.0 °F 66% 30.18 in 9.0 mi WSW 9.2 mph 20.7 mph 0.00 in Snow Light Snow
5:53 PM 27.0 °F 18.7 °F 17.1 °F 66% 30.21 in 10.0 mi West 8.1 mph 16.1 mph 0.00 in   Scattered Clouds
6:53 PM 26.1 °F 18.4 °F 18.0 °F 71% 30.25 in 10.0 mi West 6.9 mph - N/A   Partly Cloudy
7:53 PM 26.1 °F 18.4 °F 18.0 °F 71% 30.26 in 10.0 mi West 6.9 mph - N/A   Mostly Cloudy
8:53 PM 26.1 °F 16.2 °F 14.0 °F 60% 30.29 in 10.0 mi West 10.4 mph 16.1 mph N/A   Partly Cloudy
9:53 PM 27.0 °F 19.5 °F 14.0 °F 58% 30.31 in 9.0 mi West 6.9 mph - 0.00 in Snow Light Snow
10:53 PM 27.0 °F 21.6 °F 15.1 °F 61% 30.33 in 10.0 mi WNW 4.6 mph - 0.00 in   Overcast
11:53 PM 27.0 °F 20.5 °F 15.1 °F 61% 30.35 in 10.0 mi WNW 5.8 mph - N/A   Mostly Cloudy